NAV1995 KNKX-KLSV

Flight info

Callsign NAV1995
Flight time N/A
Altitude 17000
Route JLI V514 GFS KONNG/N0234F160
Aircraft LJ45/M-SDFGILRWY/SB1

Departure

Time 2026-04-23 19:18
Airport Miramar Marine Corps Air Station - Mitscher Field (KNKX)

Arrival

Time N/A
Airport Nellis Air Force Base (KLSV)
Time Latitude Longitude Altitude Speed Heading
2026-04-23 19:03 32.87313 -117.13728 436 ft 0 kts 74°
2026-04-23 19:13 32.87310 -117.13719 445 ft 9 kts 137°
2026-04-23 19:14 32.87254 -117.13872 436 ft 37 kts 259°
2026-04-23 19:14 32.87125 -117.14128 446 ft 36 kts 240°
2026-04-23 19:14 32.86980 -117.14102 451 ft 0 kts 207°
2026-04-23 19:14 32.87313 -117.13728 443 ft 0 kts 74°
2026-04-23 19:16 32.87318 -117.13649 443 ft 19 kts 85°
2026-04-23 19:17 32.87416 -117.13122 436 ft 32 kts 73°
2026-04-23 19:17 32.87431 -117.12902 434 ft 25 kts 111°
2026-04-23 19:17 32.87358 -117.12758 450 ft 17 kts 160°
2026-04-23 19:17 32.87253 -117.12883 451 ft 58 kts 258°
2026-04-23 19:18 32.87057 -117.13696 484 ft 134 kts 253°
2026-04-23 19:18 32.86773 -117.14968 868 ft 185 kts 258°
2026-04-23 19:18 32.87543 -117.15938 1513 ft 208 kts 342°
2026-04-23 19:18 32.89062 -117.16430 2197 ft 247 kts 354°
2026-04-23 19:19 32.92911 -117.14305 1861 ft 321 kts 33°
2026-04-23 19:19 32.94508 -117.12679 3963 ft 296 kts 44°
2026-04-23 19:20 32.97277 -117.08899 6445 ft 310 kts 51°
2026-04-23 19:20 32.98798 -117.07046 7642 ft 317 kts 41°
2026-04-23 19:20 33.00404 -117.05218 8982 ft 322 kts 41°
2026-04-23 19:20 33.02035 -117.03355 10338 ft 327 kts 40°
2026-04-23 19:21 33.03703 -117.01458 11448 ft 337 kts 40°
2026-04-23 19:21 33.07118 -116.97378 13330 ft 361 kts 44°
2026-04-23 19:21 33.08768 -116.95022 14322 ft 368 kts 48°
2026-04-23 19:22 33.10418 -116.92669 15246 ft 372 kts 45°
2026-04-23 19:22 33.12152 -116.90439 16166 ft 371 kts 40°
2026-04-23 19:22 33.16062 -116.86259 17013 ft 390 kts 37°
2026-04-23 19:23 33.18097 -116.84073 17299 ft 393 kts 37°
2026-04-23 19:23 33.20108 -116.81862 17310 ft 392 kts 38°
2026-04-23 19:23 33.22097 -116.79617 17348 ft 396 kts 39°
2026-04-23 19:24 33.26050 -116.75066 17899 ft 390 kts 37°
2026-04-23 19:24 33.28056 -116.72880 18036 ft 389 kts 36°
2026-04-23 19:24 33.32211 -116.68823 17994 ft 380 kts 33°
2026-04-23 19:25 33.36347 -116.64793 16752 ft 391 kts 33°
2026-04-23 19:25 33.40470 -116.60920 16807 ft 371 kts 32°
2026-04-23 19:26 33.44562 -116.57053 16715 ft 372 kts 32°
2026-04-23 19:26 33.46615 -116.55172 16564 ft 374 kts 32°
2026-04-23 19:27 33.50687 -116.51295 16741 ft 370 kts 33°
2026-04-23 19:27 33.57159 -116.45922 13564 ft 396 kts
2026-04-23 19:28 33.58474 -116.50550 11402 ft 340 kts 269°
2026-04-23 19:28 33.55577 -116.49213 10218 ft 318 kts 47°
2026-04-23 19:29 33.57377 -116.49744 9138 ft 320 kts 309°
2026-04-23 19:29 33.59550 -116.53746 9768 ft 318 kts 282°
2026-04-23 19:30 33.59446 -116.59801 5935 ft 336 kts 267°
2026-04-23 19:30 33.60098 -116.61636 6389 ft 238 kts
2026-04-23 19:30 33.61907 -116.57779 7184 ft 325 kts 79°
2026-04-23 19:31 33.63506 -116.56087 7690 ft 332 kts 21°
2026-04-23 19:31 33.65826 -116.54907 5683 ft 392 kts 25°
2026-04-23 19:31 33.68223 -116.53472 5156 ft 374 kts 27°
2026-04-23 19:31 33.70389 -116.52159 5096 ft 317 kts 30°
2026-04-23 19:32 33.71993 -116.50714 4909 ft 266 kts 41°
2026-04-23 19:32 33.73278 -116.49296 3839 ft 247 kts 41°
2026-04-23 19:32 33.74589 -116.48087 2670 ft 221 kts 30°
2026-04-23 19:32 33.75755 -116.47499 1952 ft 177 kts 14°
2026-04-23 19:33 33.77027 -116.47285 1429 ft 192 kts 356°
2026-04-23 19:33 33.78250 -116.47494 1260 ft 169 kts 350°
2026-04-23 19:33 33.80048 -116.48189 897 ft 135 kts 328°
2026-04-23 19:34 33.80763 -116.48812 737 ft 124 kts 326°
2026-04-23 19:34 33.81487 -116.49447 554 ft 121 kts 324°
2026-04-23 19:34 33.82505 -116.50325 417 ft 33 kts 327°
2026-04-23 19:35 33.82573 -116.50224 414 ft 18 kts 52°
2026-04-23 19:35 33.82578 -116.50215 417 ft 0 kts 50°
2026-04-23 19:36 33.82587 -116.50214 416 ft 10 kts 338°
2026-04-23 19:37 33.82572 -116.50318 422 ft 19 kts 282°
2026-04-23 19:37 33.82787 -116.50590 435 ft 86 kts 324°
2026-04-23 19:37 33.83431 -116.51187 538 ft 131 kts 324°
2026-04-23 19:37 33.84242 -116.51441 830 ft 152 kts 49°
2026-04-23 19:38 33.84849 -116.50182 1064 ft 197 kts 62°
2026-04-23 19:38 33.85467 -116.48623 1670 ft 215 kts 65°
2026-04-23 19:38 33.86127 -116.46852 1827 ft 244 kts 66°
2026-04-23 19:38 33.86778 -116.44927 2218 ft 251 kts 69°
2026-04-23 19:39 33.87349 -116.42976 2856 ft 248 kts 70°
2026-04-23 19:39 33.87918 -116.41050 3618 ft 245 kts 70°
2026-04-23 19:39 33.88467 -116.39072 4073 ft 253 kts 71°
2026-04-23 19:39 33.89056 -116.37106 4786 ft 246 kts 64°
2026-04-23 19:40 33.89783 -116.35277 5614 ft 240 kts 60°
2026-04-23 19:40 33.90644 -116.33519 6283 ft 248 kts 59°
2026-04-23 19:40 33.91521 -116.31719 6933 ft 251 kts 58°
2026-04-23 19:40 33.92407 -116.29891 7584 ft 255 kts 58°
2026-04-23 19:41 33.93296 -116.28072 8446 ft 249 kts 58°
2026-04-23 19:41 33.94197 -116.26228 8792 ft 269 kts 58°
2026-04-23 19:41 33.95215 -116.24219 8846 ft 286 kts 57°
2026-04-23 19:41 33.96233 -116.22200 9580 ft 276 kts 56°
2026-04-23 19:42 33.97311 -116.20325 10208 ft 274 kts 50°
2026-04-23 19:42 33.98502 -116.18447 10325 ft 290 kts 49°
2026-04-23 19:42 33.99817 -116.16548 10516 ft 297 kts 47°
2026-04-23 19:42 34.01156 -116.14658 10867 ft 296 kts 46°
2026-04-23 19:43 34.02512 -116.12779 11153 ft 299 kts 46°
2026-04-23 19:43 34.03844 -116.10834 11376 ft 302 kts 48°
2026-04-23 19:43 34.05016 -116.08707 11541 ft 307 kts 57°
2026-04-23 19:43 34.05959 -116.06381 11669 ft 310 kts 63°
2026-04-23 19:44 34.06842 -116.04005 11788 ft 311 kts 65°
2026-04-23 19:44 34.07662 -116.01586 11952 ft 311 kts 66°
2026-04-23 19:44 34.08409 -115.99180 12239 ft 309 kts 68°
2026-04-23 19:44 34.09109 -115.96740 12471 ft 309 kts 69°
2026-04-23 19:45 34.09751 -115.94246 12579 ft 313 kts 71°
2026-04-23 19:45 34.10353 -115.91739 12890 ft 308 kts 72°
2026-04-23 19:45 34.10906 -115.89269 13251 ft 305 kts 72°
2026-04-23 19:45 34.11464 -115.86785 13383 ft 310 kts 73°
2026-04-23 19:46 34.12057 -115.84265 13498 ft 312 kts 71°
2026-04-23 19:46 34.12686 -115.81739 13585 ft 316 kts 70°
2026-04-23 19:46 34.13433 -115.79287 14065 ft 296 kts 64°
2026-04-23 19:46 34.14250 -115.77047 14506 ft 295 kts 60°
2026-04-23 19:47 34.14873 -115.75553 14375 ft 307 kts 58°
2026-04-23 19:47 34.16415 -115.72618 14430 ft 308 kts 48°
2026-04-23 19:47 34.17737 -115.70591 14596 ft 308 kts 46°
2026-04-23 19:47 34.19110 -115.68582 14573 ft 313 kts 45°
2026-04-23 19:48 34.20548 -115.66573 14563 ft 317 kts 44°
2026-04-23 19:48 34.22037 -115.64634 14697 ft 312 kts 41°
2026-04-23 19:48 34.23571 -115.62796 14860 ft 309 kts 38°
2026-04-23 19:48 34.25125 -115.61014 15034 ft 306 kts 38°
2026-04-23 19:49 34.26688 -115.59319 15333 ft 299 kts 35°
2026-04-23 19:49 34.28291 -115.57726 15533 ft 297 kts 32°
2026-04-23 19:49 34.29992 -115.56265 15397 ft 306 kts 27°
2026-04-23 19:49 34.31810 -115.54895 15371 ft 307 kts 24°
2026-04-23 19:50 34.33693 -115.53689 15393 ft 306 kts 20°
2026-04-23 19:50 34.35597 -115.52626 15390 ft 306 kts 18°
2026-04-23 19:50 34.37554 -115.51643 15429 ft 303 kts 15°
2026-04-23 19:50 34.39533 -115.50776 15489 ft 301 kts 12°
2026-04-23 19:51 34.41516 -115.49949 15517 ft 302 kts 13°
2026-04-23 19:51 34.43481 -115.49008 15515 ft 306 kts 17°
2026-04-23 19:51 34.45435 -115.47990 15539 ft 305 kts 17°
2026-04-23 19:51 34.47396 -115.47021 15592 ft 304 kts 15°
2026-04-23 19:52 34.48729 -115.46408 15624 ft 302 kts 13°
2026-04-23 19:52 34.51346 -115.45215 15635 ft 304 kts 14°
2026-04-23 19:52 34.53320 -115.44317 15723 ft 302 kts 14°
2026-04-23 19:52 34.55291 -115.43440 15772 ft 301 kts 13°
2026-04-23 19:53 34.57266 -115.42534 15739 ft 306 kts 15°
2026-04-23 19:53 34.59239 -115.41559 15734 ft 306 kts 15°
2026-04-23 19:53 34.61213 -115.40629 15831 ft 304 kts 15°
2026-04-23 19:53 34.63167 -115.39665 15906 ft 302 kts 15°
2026-04-23 19:54 34.65108 -115.38704 16017 ft 300 kts 15°
2026-04-23 19:54 34.67065 -115.37778 15964 ft 305 kts 15°
2026-04-23 19:54 34.69034 -115.36762 15871 ft 309 kts 17°
2026-04-23 19:54 34.70994 -115.35717 15982 ft 304 kts 17°
2026-04-23 19:55 34.72928 -115.34764 16191 ft 297 kts 14°
2026-04-23 19:55 34.74850 -115.33879 16390 ft 294 kts 14°
2026-04-23 19:55 34.76772 -115.32953 16273 ft 289 kts 15°
2026-04-23 19:55 34.78050 -115.32208 8996 ft 300 kts 38°
2026-04-23 19:56 34.79668 -115.29936 4440 ft 340 kts 60°
2026-04-23 19:56 34.80180 -115.28440 2944 ft 245 kts 74°
2026-04-23 19:56 34.80523 -115.26386 1976 ft 155 kts 79°
2026-04-23 19:56 34.80587 -115.25604 2002 ft 136 kts 85°
2026-04-23 19:57 34.80674 -115.24638 1971 ft 102 kts 79°
2026-04-23 19:57 34.80770 -115.23916 1973 ft 92 kts 82°